Terug naar catalogus

STARLINK-4800

ActiefCommunicatieVLEO
NORAD 53854·PAYLOAD·🇺🇸 United States

Gelanceerd Sep 19, 2022 vanaf Cape Canaveral Space Force Station

Loading…

Volgende Passages (komende 24 uur)

TLE

VersSource: CelesTrak SupGP

Epoch: Sep 14, 2026, 21:39 UTC

1 53854C 22114AN  26257.90256944 -.00029223  00000+0 -93993-3 0  2578
2 53854  53.1581 145.1240 0001330  85.0743 304.6753 15.31710031    12

Volg STARLINK-4800 in realtime met AllMySat

Download on the App Store